{"data":{"norad_id":62122,"epoch":"2026-05-24T22:58:53.465664Z","epoch_age_seconds":78956,"freshness":"FRESH","line1":"1 62122U 24222J   26144.95756326  .00018749  00000+0  68902-3 0  9991","line2":"2 62122  43.0032  65.4225 0001207 268.2285  91.8428 15.27584659 84583","mean_motion":15.27584659,"eccentricity":0.0001207,"inclination_deg":43.0032,"raan_deg":65.4225,"arg_perigee_deg":268.2285,"mean_anomaly_deg":91.8428,"bstar":0.00068902,"rev_number":8458,"period_min":94.266461208288,"perigee_km":482.2070018751,"apogee_km":483.86328883099,"semimajor_km":6861.172145353,"source":"CELESTRAK","updated_at":"2026-05-25T13:38:19.564065Z"}}